AirNav   Pilot Hours Calculator
 
 1421 users online  

5OK3 Stearmans Roost Airport
Vinita, Oklahoma, USA

GOING TO VINITA?


FAA INFORMATION EFFECTIVE 01 DECEMBER 2022

Location

FAA Identifier: 5OK3
Lat/Long: 36-29-18.3110N 095-08-37.8780W
36-29.305183N 095-08.631300W
36.4884197,-95.1438550
(estimated)
Elevation: 702 ft. / 214 m (estimated)
Variation: 05E (1985)
From city: 10 miles S of VINITA, OK
Time zone: UTC -6 (UTC -5 during Daylight Saving Time)
Zip code: 74332

Airport Operations

Airport use: Private use. Permission required prior to landing
Activation date: 12/1977
Control tower: no
ARTCC: KANSAS CITY CENTER
FSS: MC ALESTER FLIGHT SERVICE STATION
Attendance: CONTINUOUS
Wind indicator: yes
Segmented circle: no

Airport Communications

WX AWOS-3PT at H71 (18 nm SW): 120.1 (918-476-0517)

Nearby radio navigation aids

VOR radial/distance  VOR name  Freq  Var
TULr053/35.7TULSA VORTAC114.4008E

 
NDB name  Hdg/Dist  Freq  Var  ID
SILOAM SPRINGS296/36.428404ESLG ... .-.. --.

Airport Services

Airframe service: MAJOR
Powerplant service: MAJOR

Runway Information

Runway 9/27

Dimensions: 4000 x 100 ft. / 1219 x 30 m
Surface: turf
RUNWAY 9  RUNWAY 27
Traffic pattern: leftleft

Airport Ownership and Management from official FAA records

Ownership: Privately-owned
Owner: GEORGE O COLVIN
36526 S 4410 RD
BIG CABIN, OK 74332
Phone 918-557-1999
Manager: GEORGE O COLVIN
36526 S 4410 RD
BIG CABIN, OK 74332
Phone 918-557-1999

Airport Operational Statistics

Aircraft based on the field: 6
Single engine airplanes: 6
    

Additional Remarks

FOR CD CTC KANSAS CITY ARTCC AT 913-254-8508.

Instrument Procedures

There are no published instrument procedures at 5OK3.

Some nearby airports with instrument procedures:

1K8 - South Grand Lake Regional Airport (7 nm NE)
H71 - Mid-America Industrial Airport (18 nm SW)
KGCM - Claremore Regional Airport (20 nm SW)
KGMJ - Grove Regional Airport (21 nm E)
KMIO - Miami Regional Airport (28 nm NE)
 
Loc | Ops | Rwys | IFR | FBO | Links
Com | Nav | Svcs | Stats | Notes
Area around 5OK3 (Stearmans Roost Airport)
 
Road maps at: MapQuest Bing Google
 
Aerial photo
No photo
 
Sectional chart

 
Airport distance calculator
Flying to Stearmans Roost Airport? Find the distance to fly.

From to 5OK3

Sunrise and sunset
Times for 02-Dec-2022
 Local
(UTC-6)
 Zulu
(UTC)
Morning civil twilight06:4712:47
Sunrise07:1613:16
Sunset17:0423:04
Evening civil twilight17:3323:33

Current date and time
Zulu (UTC)  02-Dec-2022 16:59:13
Local (UTC-6)  02-Dec-2022 10:59:13
 
METAR
KH71 
18nm SW 
021635Z AUTO 19016G24KT 10SM OVC014 11/08 A2995 RMK AO2
KGCM 
20nm SW 
021635Z AUTO 19017G22KT 10SM OVC013 11/08 A2995 RMK AO2
KGMJ 
21nm E 
021635Z AUTO 20016G27KT 10SM OVC015 11/09 A2995 RMK AO2
KMIO 
28nm NE 
021635Z AUTO 19016G25KT 10SM OVC016 12/08 A2991 RMK AO2
KTQH 
34nm S 
021635Z AUTO 19009G16KT 10SM OVC013 11/06 A3001 RMK AO2
TAF
KTUL 
40nm SW 
021121Z 0212/0312 18015G25KT P6SM OVC025 FM021600 20023G37KT P6SM OVC015 FM022000 20022G34KT P6SM BKN040 FM030100 20010G21KT P6SM BKN250 FM030300 25014KT P6SM BKN250 FM030500 36022G32KT P6SM BKN250 FM031000 35015G23KT P6SM SCT250
KXNA 
43nm E 
021121Z 0212/0312 19014G21KT P6SM OVC018 WS020/21045KT TEMPO 0212/0216 4SM -DZ BR OVC009 FM021600 19022G30KT P6SM OVC015 FM030100 21018G25KT P6SM OVC012 FM030400 25015G23KT P6SM BKN018 FM030600 32020G30KT P6SM BKN010 FM030800 36015G23KT P6SM SCT018
KBVO 
45nm W 
021121Z 0212/0312 19013G22KT P6SM OVC018 FM021800 20022G38KT P6SM BKN050 FM030000 21014G25KT P6SM BKN250 FM030200 29012KT P6SM BKN250 FM030400 34019G30KT P6SM BKN250 FM031000 01011G20KT P6SM FEW250
KRVS 
48nm SW 
021121Z 0212/0312 18013G22KT P6SM OVC025 FM021600 20020G34KT P6SM OVC015 FM022000 20019G30KT P6SM BKN040 FM030100 20010G17KT P6SM BKN250 FM030300 25011KT P6SM BKN250 FM030500 36020G30KT P6SM BKN250 FM031000 35013G21KT P6SM SCT250
NOTAMs
Click for the latest NOTAMs
NOTAMs are issued by the DoD/FAA and will open in a separate window not controlled by AirNav.

 

 
 

Would you like to see your business listed on this page?

 If your business provides an interesting product or service to pilots, flight crews, aircraft, or users of the Stearmans Roost Airport, you should consider listing it here.  To start the listing process, click on the button below
 
Add a business
 

Other Pages about Stearmans Roost Airport

Update a link
 
Copyright © AirNav, LLC. All rights reserved. Privacy Policy  Contact